SNORRE B OILP current weather conditions

sailwx.info

Wind from 260 at 19 knots

Air temperature 9.0° C
Visibility: greater than 5.4 NM
Dewpoint 5.0° C

Last reported at 2015-May-24 11:20 UTC.
Time now 2015-May-24 13:23 UTC

Location: N 61°32' E 002°13'.
View on Google Maps.

See reports from other nearby stations

  
Tides and Currents Weather Stations Pressure Air Temp Water Temp Dewpoint Dewpoint Depression Visibility Wind Speed Wind Dir Waves Ship Positions
date/time (UTC)wind fromknots sea level pressurealtimeterstation pressurevisibilityair tempwater tempwave heightnotes
2015-May-24 12:20 260 16 5.4 9.0
2015-May-24 11:50 260 19 5.4 9.0
2015-May-24 11:20 260 19 5.4 9.0
2015-May-24 10:50 260 20 5.4 9.0
2015-May-24 10:20 270 16 5.4 9.0
2015-May-24 09:50 270 14 5.4 9.0
2015-May-24 09:20 280 19 5.4 9.0
2015-May-24 08:50 260 14 5.4 9.0
2015-May-24 08:20 270 11 5.4 8.0
2015-May-24 07:50 280 15 5.4 8.0
2015-May-24 07:20 280 20 3.8 8.0 Light rain showers.
2015-May-24 06:50 190 22 1.9 8.0 Light rain. Mist.
2015-May-24 06:20 180 25 1.5 8.0 Light rain. Mist.
2015-May-24 05:50 170 29 1.8 8.0 Light rain. Mist.
2015-May-24 05:20 170 30 2.3 8.0 Light rain.
2015-May-24 04:50 170 32 2.4 8.0 Light rain. Mist.
2015-May-24 04:20 170 34 2.7 8.0 Light rain.
2015-May-24 03:50 170 35 2.6 8.0 Light rain. Mist.
2015-May-24 03:20 170 35 1.4 8.0 Light rain. Mist.
2015-May-24 02:50 170 35 2.7 8.0 Light rain.
2015-May-24 02:20 170 36 1.9 8.0 Light rain. Mist.
2015-May-24 01:50 160 35 1.7 7.0 Light rain. Mist.
2015-May-24 01:20 170 35 1.7 7.0 Light rain. Mist.
2015-May-24 00:50 170 33 2.1 8.0 Light rain. Mist.
2015-May-24 00:20 160 33 4.9 8.0 Light rain.
2015-May-23 23:50 160 29 5.4 8.0 Light rain.
2015-May-23 23:20 160 32 5.4 7.0 Light rain showers.
2015-May-23 22:50 170 30 4.3 7.0 Light rain showers.
2015-May-23 22:20 170 30 5.4 7.0 Light rain.
2015-May-23 21:50 170 27 5.4 8.0 Light rain.
2015-May-23 21:20 170 26 5.4 7.0
2015-May-23 20:50 170 25 5.4 7.0
2015-May-23 20:20 170 23 5.4 7.0
2015-May-23 19:50 170 20 5.4 7.0
2015-May-23 19:20 170 19 5.4 7.0
2015-May-23 18:50 170 17 5.4 7.0
2015-May-23 18:20 180 15 5.4 7.0
2015-May-23 17:50 190 11 5.4 7.0
2015-May-23 17:20 200 11 5.4 7.0
2015-May-23 16:50 220 12 5.4 7.0
2015-May-23 16:20 230 12 5.4 7.0
2015-May-23 15:50 240 11 5.4 7.0
2015-May-23 15:20 240 10 5.4 7.0
2015-May-23 14:50 250 12 5.4 7.0
2015-May-23 14:20 260 12 5.4 7.0
2015-May-23 13:50 270 10 5.4 7.0
2015-May-23 13:20 270 10 5.4 7.0
2015-May-23 12:50 290 12 5.4 6.0
2015-May-23 12:20 270 12 5.4 6.0
2015-May-23 11:50 300 14 5.4 6.0
2015-May-23 11:20 300 18 5.4 6.0
2015-May-23 10:50 310 17 5.4 6.0
2015-May-23 10:20 300 17 5.4 6.0
2015-May-23 09:50 300 19 5.4 6.0
2015-May-23 09:20 300 19 5.4 6.0
2015-May-23 08:50 310 17 5.4 6.0 Light rain showers.
2015-May-23 08:20 300 19 5.4 6.0
2015-May-23 07:50 290 16 5.4 6.0 Light rain showers.
2015-May-23 07:20 300 20 5.4 6.0
2015-May-23 06:50 310 24 5.4 5.0
2015-May-23 06:20 300 20 5.4 6.0
2015-May-23 05:50 320 23 5.4 6.0
2015-May-23 05:20 320 24 5.4 6.0
2015-May-23 04:50 310 24 5.4 6.0 Light rain showers.
2015-May-23 04:20 330 25 5.4 6.0 Light rain showers.
2015-May-23 03:50 310 27 5.4 6.0
2015-May-23 03:20 310 31 5.4 6.0
2015-May-23 02:50 310 32 5.4 6.0
2015-May-23 02:20 310 32 5.4 6.0
2015-May-23 01:50 320 33 5.4 6.0
2015-May-23 01:20 310 33 5.4 7.0
2015-May-23 00:50 310 36 5.4 7.0
2015-May-23 00:20 310 38 5.4 7.0
2015-May-22 23:50 310 38 5.4 7.0
2015-May-22 23:20 320 35 5.4 7.0
2015-May-22 22:50 310 37 5.4 7.0 Light rain showers.
2015-May-22 22:20 320 37 4.3 7.0
2015-May-22 21:50 310 35 4.9 8.0 Light rain showers.
2015-May-22 21:20 320 35 5.4 8.0
2015-May-22 20:50 310 37 4.9 8.0
2015-May-22 20:20 310 37 5.4 8.0 Light rain showers.
2015-May-22 19:50 300 36 5.4 8.0
2015-May-22 19:20 280 31 4.3 8.0 Light rain showers.
2015-May-22 18:50 280 31 5.4 7.0 Light rain showers.
2015-May-22 18:20 280 31 5.4 7.0 Light rain showers.
2015-May-22 17:50 290 27 5.4 6.0 Light rain showers.
2015-May-22 17:20 280 34 gusting 50 1.6 6.0 Light rain.
2015-May-22 16:50 270 25 5.4 8.0
2015-May-22 16:20 260 29 5.4 7.0
2015-May-22 15:50 270 29 5.4 8.0
2015-May-22 15:20 280 23 5.4 7.0 Light rain showers.
2015-May-22 14:50 260 26 gusting 39 5.4 7.0
2015-May-22 14:20 260 27 5.4 7.0
2015-May-22 13:50 270 30 gusting 41 1.0 5.0 Light rain. Mist.
2015-May-22 13:20 260 29 5.4 8.0